Regional Weather Roundup
Issued by NWS

Home | Current Version | Previous Version | Graphics & Text | Print | Product List | Glossary On
Versions: 1 2 3 4 5 6 7 8 9 10 11 12 13 14 15 16 17 18 19 20 21 22 23 24 25 26 27 28 29 30 31 32 33 34 35 36 37 38 39 40 41 42 43 44 45 46 47 48 49 50
000
ASUS43 KLOT 231706
RWRIL

ILLINOIS REGIONAL WEATHER ROUNDUP
NATIONAL WEATHER SERVICE CHICAGO/ROMEOVILLE IL
1200 PM CDT THU OCT 23 2014

NOTE: "FAIR" INDICATES FEW OR NO CLOUDS BELOW 12,000 FEET WITH NO
SIGNIFICANT WEATHER AND/OR OBSTRUCTIONS TO VISIBILITY.

* THESE STATIONS ARE NOT UNDER NWS QUALITY CONTROL. THEY ALSO MAY NOT
  REPORT WEATHER SUCH AS PRECIPITATION OR FOG.

ILZ001-002-007-009-015-016-024-231800-
NORTHWEST ILLINOIS

CITY           SKY/WX    TMP DP  RH WIND       PRES   REMARKS
MOLINE         CLOUDY    58  44  60 S7        30.11S
STERLING*      PTSUNNY   59  43  55 S8G16     30.14F
SAVANNA*       CLOUDY    54  45  70 S5        30.11F
$$

ILZ003-004-008-010-011-017-018-231800-
NORTH CENTRAL ILLINOIS

CITY           SKY/WX    TMP DP  RH WIND       PRES   REMARKS
ROCKFORD       CLOUDY    59  42  53 SW18      30.16F
FREEPORT*      CLOUDY    56  42  59 S14G20    30.14F
ROCHELLE*      PTSUNNY   57  40  54 S13G22    30.16F
DE KALB*       PTSUNNY   56  42  59 S14       30.16F
PERU*          PTSUNNY   56  42  60 S13       30.17F
$$

ILZ005-006-012>014-019>023-231800-
NORTHEAST ILLINOIS

CITY           SKY/WX    TMP DP  RH WIND       PRES   REMARKS
CHICAGO-OHARE  PTSUNNY   55  41  59 SW13G20   30.18F
CHICAGO-MIDWAY MOSUNNY   58  43  57 S13       30.19F
AURORA         MOSUNNY   58  42  55 S10       30.16F
LANSING*       MOSUNNY   54  43  66 SW10      30.21S
JOLIET*        MOSUNNY   56  42  57 SW8       30.19F
WAUKEGAN       MOSUNNY   57  41  55 S13       30.16F
DUPAGE AIRPORT MOSUNNY   58  43  57 SW14      30.18F
KANKAKEE*      PTSUNNY   58  45  60 SW12      30.21F
WHEELING       MOSUNNY   58  41  53 S14       30.19F
MORRIS*        MOSUNNY   58  44  59 SW9       30.18F
ROMEOVILLE*    SUNNY     58  41  54 SW9       30.19F
NORTHERLY ISL    N/A     56  40  55 S6          N/A
$$

LMZ740>746-231800-
SOUTHERN LAKE MICHIGAN

STATION/POSITION SKY/WX   TEMP    WIND        PRES    VSBY  WAVE
                          AIR SEA DIR/SP/G                  HT/PER
                          (F)     (DEG/KT/KT) (MB)    (MI)  (FT/S)
SOUTHERN BUOY              52 54  200/ 12/ 14 1022.7F         2/ 5
WAUKEGAN HARBOR            54     220/ 10/ 14   N/A
HARRISON CRIB              51     200/ 13/ 15   N/A
BURNHAM HARBOR             56     190/ 11/ 13   N/A
CALUMET HARBOR             54     200/  7/ 11 1021.4S
MICHIGAN CITY              52     170/  9/ 11   N/A
$$

ILZ025>027-034>036-040-047-049-050-058-095>099-231800-
WEST-CENTRAL ILLINOIS

CITY           SKY/WX    TMP DP  RH WIND       PRES   REMARKS
QUINCY         CLOUDY    56  44  64 S8        30.14F
GALESBURG*     CLOUDY    54  43  66 S12G20    30.14F
MACOMB*        CLOUDY    55  44  68 S14       30.16F
JACKSONVILLE*  CLOUDY    59  45  59 S8        30.18F
PITTSFIELD*    CLOUDY    60  45  57 S12       30.16F
$$

ILZ028>032-037-038-041>044-048-051>054-059>061-231800-
CENTRAL ILLINOIS

CITY           SKY/WX    TMP DP  RH WIND       PRES   REMARKS
PONTIAC        PTSUNNY   57  43  59 SW12      30.20F
BLOOMINGTON    CLOUDY    56  44  64 SW13      30.20F
DECATUR        CLOUDY    56  44  64 S10       30.21F
PEORIA         PTSUNNY   54  43  66 S13       30.19S
LACON*         PTSUNNY   55  41  60 S7        30.16F
LINCOLN*       CLOUDY    55  44  66 S7        30.19F
SPRINGFIELD    CLOUDY    56  44  64 S9        30.20F
TAYLORVILLE    CLOUDY    55  43  62 S9        30.21S
$$

ILZ033-039-045-046-055>057-062-063-231800-
EAST-CENTRAL ILLINOIS

CITY           SKY/WX    TMP DP  RH WIND       PRES   REMARKS
CHAMPAIGN      CLOUDY    57  43  59 SW8       30.21F
DANVILLE*      PTSUNNY   55  43  63 SW10      30.20S
RANTOUL*       CLOUDY    59  43  56 S12       30.21F
MATTOON        CLOUDY    55  44  66 S10       30.21F
PARIS*         PTSUNNY   56  44  63 S7        30.23F
$$

ILZ079-100>102-231800-
SOUTHWEST ILLINOIS

CITY           SKY/WX    TMP DP  RH WIND       PRES   REMARKS
ALTON          CLOUDY    57  43  58 S14       30.20F
BELLEVILLE     MOSUNNY   58  45  62 VRB6      30.20F
CAHOKIA*       PTSUNNY   59  43  55 SW6       30.20F
SPARTA*        MOSUNNY   58  44  60 S9        30.22F
$$

ILZ064>066-069>071-074>076-080>082-084>086-088>090-092>094-231800-
SOUTH-CENTRAL ILLINOIS

CITY           SKY/WX    TMP DP  RH WIND       PRES   REMARKS
CARBONDALE     PTSUNNY   59  43  55 VRB3      30.23F
CAIRO*         PTSUNNY   59  44  56 SE3       30.23F
EFFINGHAM*     CLOUDY    56  41  58 S6        30.22F
MARION         PTSUNNY   59  43  55 S6        30.24F
MT. VERNON     MOSUNNY   57  45  62 SW6       30.24F
CENTRALIA*     MOSUNNY   57  43  59 S8        30.21F
SALEM*         MOSUNNY   60  46  60 S8        30.22F
METROPOLIS*    MOSUNNY   58  46  64 CALM      30.23S
$$

ILZ067-068-072-073-078-083-087-091-231800-
SOUTHEAST ILLINOIS

CITY           SKY/WX    TMP DP  RH WIND       PRES   REMARKS
LAWRENCEVILLE  MOSUNNY   56  42  59 S8        30.24F
FLORA*         MOSUNNY   57  43  60 S8        30.23F
FAIRFIELD*     MOSUNNY   57  43  60 SE3       30.23F
HARRISBURG*    PTSUNNY   58  44  60 SE5       30.24F
ROBINSON*      MOSUNNY   60  44  56 S3        30.24F
CARMI*         MOSUNNY   60  46  59 SE7       30.23F
$$

ABBREVIATIONS USED IN REMARKS
   TC - TEMPERATURE IN CELSIUS
  WCI - WIND CHILL INDEX
   HX - HEAT INDEX
  VSB - VISIBILITY
$$




USA.gov is the U.S. government's official web portal to all federal, state and local government web resources and services.